Weather History for Andrews, TX

Change the Weather History Date:

Monday, July 8, 2013

  Actual Average (KMAF) Record (KMAF)
Temperature  
Mean Temperature 80 °F 82 °F  
Max Temperature 94 °F 95 °F 103 °F (1998)
Min Temperature 67 °F 70 °F 56 °F (1952)
Cooling Degree Days 16 17  
Month to date cooling degree days 136  
Year to date cooling degree days 986  
Since 1 June cooling degree days 597  
Growing Degree Days 30 (Base 50)    
Moisture  
Dew Point 57 °F    
Average Humidity 44    
Maximum Humidity 61    
Minimum Humidity 29    
Precipitation  
Precipitation 0.00 in 0.05 in 3.59 in (1988)
Month to date precipitation 0.47  
Year to date precipitation 6.53  
Sea Level Pressure  
Sea Level Pressure 30.10 in    
Wind  
Wind Speed 6 mph (SSE)    
Max Wind Speed 16 mph    
Max Gust Speed 24 mph    
Visibility 10 miles    
Events      
T = Trace of Precipitation, MM = Missing Value Source: NWS Daily Summary

Daily Weather History Graph

Daily Weather History Graph

Search for Another Location

Airport:

Trip Planner

Search our weather history database for the weather conditions in past years. The results will help you decide how hot, cold, wet, or windy it might be!

Date:

Astronomy

Jul. 08, 2013 Rise Set
Actual Time 6:50 AM CDT 9:00 PM CDT
Civil Twilight 6:22 AM CDT 9:28 PM CDT
Nautical Twilight 5:47 AM CDT 10:02 PM CDT
Astronomical Twilight 5:10 AM CDT 10:39 PM CDT
Moon 7:16 AM CDT (7/8) 9:10 PM CDT (7/8)
Length of Visible Light 15h 05m
Length of Day
14h 09m
New Moon, 0% of the Moon is Illuminated
Jul 8
New Moon
Jul 15
First Quarter
Jul 22
Full
Jul 29
Last Quarter
Aug 6
New

Hourly Weather History & Observations

Time (CDT) Temp. Heat Index Dew Point Humidity Pressure Visibility Wind Dir Wind Speed Gust Speed Precip Events Conditions
12:15 AM 78.4 °F - 50.9 °F 38% 30.06 in 10.0 mi SE 4.6 mph - N/A   Clear
12:35 AM 77.7 °F - 51.3 °F 40% 30.06 in 10.0 mi SE 3.5 mph - N/A   Clear
12:55 AM 76.6 °F - 51.4 °F 41% 30.07 in 10.0 mi ESE 3.5 mph - N/A   Clear
1:15 AM 75.2 °F - 52.0 °F 44% 30.07 in 10.0 mi Calm Calm - N/A   Clear
1:35 AM 74.7 °F - 51.8 °F 45% 30.06 in 10.0 mi SE 3.5 mph - N/A   Clear
1:55 AM 74.7 °F - 51.6 °F 44% 30.06 in 10.0 mi SE 4.6 mph - N/A   Clear
2:15 AM 73.9 °F - 51.8 °F 46% 30.06 in 10.0 mi SE 3.5 mph - N/A   Clear
2:35 AM 73.2 °F - 51.4 °F 46% 30.06 in 10.0 mi Calm Calm - N/A   Clear
2:55 AM 73.4 °F - 51.6 °F 46% 30.06 in 10.0 mi Calm Calm - N/A   Clear
3:15 AM 72.0 °F - 51.8 °F 49% 30.06 in 10.0 mi SE 4.6 mph - N/A   Clear
3:35 AM 71.6 °F - 52.0 °F 50% 30.06 in 10.0 mi Calm Calm - N/A   Clear
3:55 AM 71.8 °F - 54.0 °F 53% 30.07 in 10.0 mi Calm Calm - N/A   Clear
4:15 AM 70.3 °F - 55.6 °F 59% 30.07 in 10.0 mi Calm Calm - N/A   Clear
4:35 AM 70.5 °F - 52.5 °F 53% 30.08 in 10.0 mi Calm Calm - N/A   Clear
4:55 AM 69.6 °F - 55.4 °F 61% 30.08 in 10.0 mi Calm Calm - N/A   Clear
5:15 AM 69.3 °F - 52.3 °F 55% 30.09 in 10.0 mi Calm Calm - N/A   Clear
5:55 AM 69.1 °F - 53.2 °F 57% 30.10 in 10.0 mi Calm Calm - N/A   Clear
6:15 AM 68.5 °F - 53.1 °F 58% 30.11 in 10.0 mi Calm Calm - N/A   Clear
6:35 AM 67.6 °F - 52.7 °F 59% 30.12 in 10.0 mi East 3.5 mph - N/A   Clear
6:55 AM 67.5 °F - 53.1 °F 60% 30.12 in 10.0 mi Calm Calm - N/A   Clear
7:15 AM 67.6 °F - 54.0 °F 61% 30.12 in 10.0 mi Calm Calm - N/A   Clear
7:35 AM 69.1 °F - 54.1 °F 59% 30.13 in 10.0 mi Calm Calm - N/A   Clear
7:55 AM 71.2 °F - 54.7 °F 56% 30.14 in 10.0 mi Calm Calm - N/A   Clear
8:15 AM 73.9 °F - 56.5 °F 54% 30.14 in 10.0 mi SE 4.6 mph - N/A   Clear
8:35 AM 75.9 °F - 58.6 °F 55% 30.14 in 10.0 mi South 4.6 mph - N/A   Clear
8:55 AM 77.7 °F - 62.8 °F 60% 30.15 in 10.0 mi South 9.2 mph - N/A   Clear
9:15 AM 78.8 °F - 63.5 °F 59% 30.15 in 10.0 mi South 11.5 mph 18.4 mph N/A   Clear
9:35 AM 79.7 °F - 63.3 °F 57% 30.16 in 10.0 mi South 12.7 mph - N/A   Clear
9:55 AM 80.6 °F 82.0 °F 63.5 °F 56% 30.16 in 10.0 mi South 8.1 mph 16.1 mph N/A   Clear
10:15 AM 82.0 °F 83.3 °F 63.5 °F 53% 30.16 in 10.0 mi South 11.5 mph - N/A   Clear
10:35 AM 82.8 °F 83.8 °F 63.1 °F 51% 30.15 in 10.0 mi South 11.5 mph 16.1 mph N/A   Clear
10:55 AM 83.7 °F 84.5 °F 62.8 °F 49% 30.16 in 10.0 mi South 11.5 mph - N/A   Clear
11:15 AM 85.3 °F 85.9 °F 62.1 °F 46% 30.16 in 10.0 mi South 12.7 mph 19.6 mph N/A   Clear
11:35 AM 86.0 °F 86.3 °F 62.1 °F 44% 30.15 in 10.0 mi South 15.0 mph - N/A   Clear
11:55 AM 86.0 °F 86.3 °F 61.9 °F 44% 30.15 in 10.0 mi South 11.5 mph 18.4 mph N/A   Clear
12:15 PM 87.4 °F 87.4 °F 61.0 °F 41% 30.15 in 10.0 mi SSE 10.4 mph 17.3 mph N/A   Clear
12:35 PM 88.2 °F 87.8 °F 60.6 °F 39% 30.15 in 10.0 mi SSE 10.4 mph 19.6 mph N/A   Scattered Clouds
12:55 PM 88.5 °F 88.3 °F 60.8 °F 39% 30.15 in 10.0 mi SSE 11.5 mph 18.4 mph N/A   Scattered Clouds
1:15 PM 89.6 °F 89.2 °F 59.9 °F 37% 30.14 in 10.0 mi SSE 8.1 mph 17.3 mph N/A   Scattered Clouds
1:35 PM 90.5 °F 90.1 °F 59.9 °F 36% 30.14 in 10.0 mi SSE 9.2 mph 17.3 mph N/A   Scattered Clouds
1:55 PM 90.7 °F 90.1 °F 59.5 °F 35% 30.14 in 10.0 mi SSE 12.7 mph 20.7 mph N/A   Scattered Clouds
2:15 PM 91.0 °F 90.2 °F 58.8 °F 34% 30.13 in 10.0 mi SSW 10.4 mph 17.3 mph N/A   Mostly Cloudy
2:35 PM 89.8 °F 88.9 °F 58.5 °F 35% 30.12 in 10.0 mi South 8.1 mph 17.3 mph N/A   Scattered Clouds
2:55 PM 91.4 °F 90.1 °F 58.1 °F 32% 30.11 in 10.0 mi SSW 10.4 mph - N/A   Scattered Clouds
3:15 PM 92.3 °F 91.0 °F 57.9 °F 31% 30.11 in 10.0 mi South 11.5 mph 20.7 mph N/A   Scattered Clouds
3:35 PM 92.7 °F 91.5 °F 57.6 °F 31% 30.10 in 10.0 mi South 11.5 mph 19.6 mph N/A   Scattered Clouds
3:55 PM 93.2 °F 91.6 °F 56.7 °F 29% 30.09 in 10.0 mi South 9.2 mph 16.1 mph N/A   Scattered Clouds
4:15 PM 92.5 °F 91.0 °F 57.2 °F 30% 30.09 in 10.0 mi SSE 8.1 mph 19.6 mph N/A   Scattered Clouds
4:35 PM 94.1 °F 92.8 °F 57.2 °F 29% 30.08 in 10.0 mi South 10.4 mph 17.3 mph N/A   Scattered Clouds
4:55 PM 92.7 °F 91.2 °F 57.0 °F 30% 30.07 in 10.0 mi South 13.8 mph 20.7 mph N/A   Scattered Clouds
5:15 PM 93.4 °F 91.8 °F 56.8 °F 29% 30.07 in 10.0 mi SSE 9.2 mph 24.2 mph N/A   Mostly Cloudy
5:35 PM 92.7 °F 91.2 °F 56.8 °F 30% 30.06 in 10.0 mi South 11.5 mph 17.3 mph N/A   Mostly Cloudy
5:55 PM 93.7 °F 92.3 °F 57.4 °F 29% 30.06 in 10.0 mi SSE 15.0 mph 20.7 mph N/A   Scattered Clouds
6:15 PM 92.7 °F 91.5 °F 57.7 °F 31% 30.06 in 10.0 mi South 11.5 mph 21.9 mph N/A   Scattered Clouds
6:35 PM 91.9 °F 90.3 °F 56.7 °F 30% 30.05 in 10.0 mi South 12.7 mph 21.9 mph N/A   Scattered Clouds
6:55 PM 91.8 °F 90.0 °F 55.8 °F 30% 30.05 in 10.0 mi SSE 8.1 mph - N/A   Scattered Clouds
7:15 PM 92.5 °F 91.0 °F 57.0 °F 30% 30.05 in 10.0 mi SSE 10.4 mph - N/A   Mostly Cloudy
7:35 PM 90.9 °F 89.4 °F 56.8 °F 32% 30.05 in 10.0 mi SE 13.8 mph 17.3 mph N/A   Mostly Cloudy
7:55 PM 90.7 °F 89.5 °F 58.1 °F 33% 30.05 in 10.0 mi SSE 15.0 mph 19.6 mph N/A   Mostly Cloudy
8:15 PM 87.8 °F 86.7 °F 58.1 °F 36% 30.06 in 10.0 mi South 12.7 mph 23.0 mph N/A   Mostly Cloudy
8:35 PM 87.1 °F 85.9 °F 57.4 °F 36% 30.06 in 10.0 mi SSE 16.1 mph 21.9 mph N/A   Clear
8:55 PM 86.0 °F 84.9 °F 56.8 °F 37% 30.07 in 10.0 mi South 13.8 mph 18.4 mph N/A   Clear
9:15 PM 85.1 °F 84.1 °F 56.7 °F 38% 30.08 in 10.0 mi South 9.2 mph - N/A   Clear
9:35 PM 84.2 °F 83.5 °F 57.7 °F 40% 30.09 in 10.0 mi South 9.2 mph - N/A   Clear
9:55 PM 83.5 °F 82.9 °F 57.7 °F 41% 30.10 in 10.0 mi South 8.1 mph - N/A   Clear
10:15 PM 82.9 °F 82.7 °F 58.1 °F 43% 30.12 in 10.0 mi South 6.9 mph - N/A   Clear
10:35 PM 82.4 °F 82.5 °F 59.0 °F 45% 30.13 in 10.0 mi South 10.4 mph - N/A   Clear
10:55 PM 81.7 °F 82.0 °F 59.4 °F 47% 30.14 in 10.0 mi South 9.2 mph - N/A   Clear
11:15 PM 81.1 °F 81.5 °F 59.2 °F 47% 30.14 in 10.0 mi South 5.8 mph - N/A   Clear
11:35 PM 80.1 °F 80.8 °F 59.2 °F 49% 30.15 in 10.0 mi South 6.9 mph - N/A   Clear
11:55 PM 79.7 °F - 59.4 °F 50% 30.15 in 10.0 mi South 8.1 mph - N/A   Clear